Theta_e
318 320 320 320 320 321 320 320 319 319 316 316 316 317 318 317 318 317 317 318 316 316 316 314 312 311 306 301 298 296 297 297 297 293 292 290 289 290 289 290 290 290 290
313 313 316 315 315 317 318 317 315 316 316 316 316 317 317 318 318 317 316 315 314 312 310 306 305 302 301 299 296 295 294 294 295 291 288 287 287 288 290 288 288 289 289
309 310 309 309 309 311 312 313 314 315 315 316 316 316 315 314 315 313 312 309 308 307 305 305 305 302 297 294 293 293 292 292 292 289 286 287 288 288 287 287 288 288 288
304 306 308 309 310 311 310 310 311 311 312 311 310 309 308 307 307 306 305 304 303 302 300 299 298 297 296 293 291 291 291 289 288 288 287 286 286 285 286 285 284 285 286
295 297 299 298 299 300 303 302 301 301 303 304 302 301 302 302 301 302 301 299 297 297 295 295 295 293 291 293 291 290 289 288 288 287 286 286 286 284 284 285 285 287 286
294 294 294 294 293 295 295 295 294 293 294 294 295 294 294 295 295 296 295 295 294 294 294 292 292 288 291 292 292 292 291 289 287 288 287 285 285 286 285 285 284 283 283
292 291 291 290 290 291 292 292 292 292 292 292 292 292 291 290 293 294 292 292 291 291 290 289 288 287 288 289 291 291 290 291 290 288 287 286 286 286 285 283 283 283 284
290 289 289 289 288 287 287 287 287 288 289 288 287 287 287 288 291 292 290 289 288 288 288 288 288 287 287 287 287 287 287 287 288 288 288 288 287 285 286 285 285 284 282
288 288 288 288 286 286 285 285 286 285 285 284 284 286 286 286 291 291 288 287 287 286 286 287 287 287 288 289 287 286 285 286 288 290 291 291 290 289 287 284 282 281 281
288 288 287 286 285 285 284 284 283 284 285 284 284 283 284 284 291 290 287 286 285 285 285 286 286 287 288 289 286 285 284 286 286 286 286 287 289 287 289 284 283 282 282
285 284 282 282 283 284 282 281 284 284 284 282 279 278 280 280 287 291 289 285 286 285 285 285 285 287 289 289 288 285 286 285 285 285 285 286 286 286 285 285 284 283 280
283 282 281 280 282 281 280 279 284 284 282 281 278 278 278 279 285 289 291 289 288 284 283 284 284 288 288 288 288 289 289 287 285 284 283 283 284 284 285 285 285 284 285
282 281 280 279 279 279 279 278 278 278 279 277 278 278 277 278 279 285 288 289 288 285 285 286 287 286 286 285 286 287 282 286 285 283 283 283 284 285 285 284 284 285 284
281 279 279 278 277 278 278 279 279 278 278 278 278 277 276 278 279 279 281 283 284 285 285 285 285 285 285 284 284 284 285 284 284 283 283 284 284 284 283 284 283 283 282
281 279 279 279 279 278 278 278 278 276 280 278 276 276 278 278 280 283 281 281 281 284 284 284 284 283 283 283 284 284 284 284 283 283 284 283 283 283 283 284 282 282 280
280 279 279 279 279 279 279 280 284 284 284 283 281 279 277 285 286 286 286 286 286 285 280 281 281 280 280 280 280 280 281 280 281 280 281 281 280 280 281 282 282 281 280
281 279 279 278 279 280 281 280 280 282 284 285 285 285 284 285 285 285 286 286 285 281 276 276 278 279 278 279 278 279 278 279 279 280 279 279 279 279 279 279 280 280 280
280 279 279 278 278 278 279 280 279 276 273 273 279 282 283 282 282 283 284 279 273 270 275 275 273 272 271 271 270 271 271 272 273 273 275 277 278 278 279 279 279 279 279
277 276 276 274 274 273 272 272 272 271 270 267 265 270 269 278 277 276 276 273 268 265 264 265 264 266 266 266 266 266 266 267 268 268 270 270 271 272 272 274 274 274 275
272 272 273 271 270 270 270 269 267 267 266 265 265 265 262 263 264 261 260 261 262 262 261 262 261 261 262 262 262 262 263 264 264 265 265 266 267 267 268 269 270 270 272
270 269 268 268 267 268 267 267 266 266 264 263 263 263 266 264 261 261 259 259 260 259 259 259 259 259 259 259 259 260 260 261 260 260 261 262 262 263 264 266 267 268 269
267 266 266 264 264 264 264 264 264 264 263 264 263 267 268 260 260 260 259 258 257 256 257 258 259 258 258 258 258 259 259 259 259 258 259 259 260 261 261 263 264 265 266
265 266 265 264 265 264 264 264 264 264 263 263 262 262 261 260 260 260 260 257 256 256 255 255 256 256 255 255 255 257 257 258 258 256 257 258 259 260 261 261 262 262 263
267 266 266 265 265 265 264 263 263 263 263 262 261 261 261 260 259 259 258 256 256 255 254 253 254 255 255 254 254 253 253 254 255 255 256 258 259 260 260 259 260 260 261
266 265 265 265 264 264 263 263 263 262 262 262 260 260 259 259 258 257 256 255 254 254 254 254 254 254 254 253 253 254 254 257 256 257 258 259 260 260 259 259 258 260 259
264 264 263 263 263 263 263 263 263 262 262 261 260 259 259 258 258 257 257 255 255 255 254 254 254 254 254 255 255 256 256 261 261 261 262 262 262 261 259 258 258 259 259
Wind_Speed
12 12 12 11 12 10 10 10 10 8 8 10 10 11 11 11 10 10 10 9 9 10 9 7 7 3 1 3 3 3 4 4 7 2 2 4 7 9 8 8 6 7 6
9 9 10 7 8 9 10 8 7 9 8 10 10 10 10 9 8 9 9 7 7 6 4 3 5 4 5 4 2 4 4 5 4 5 3 4 5 4 5 6 5 6 6
7 8 7 7 7 8 7 6 6 7 8 8 8 8 6 6 6 5 5 5 6 6 6 4 3 2 2 2 4 3 2 4 4 1 2 2 3 3 4 4 5 6 7
6 7 8 8 8 7 7 6 6 5 5 4 4 5 6 6 5 5 5 3 2 1 2 2 2 5 5 5 4 5 4 4 3 4 3 2 1 1 1 2 5 5 7
6 6 6 5 5 5 5 5 5 5 4 4 4 4 4 3 2 2 3 4 4 3 2 2 1 2 5 7 4 6 7 5 4 4 1 2 2 2 4 2 5 4 5
6 6 5 6 6 6 6 6 6 6 5 5 5 5 4 3 5 6 3 3 3 3 3 3 2 2 4 7 9 6 6 6 3 3 3 2 2 2 3 3 2 2 4
6 6 6 6 6 6 6 5 5 5 5 6 5 5 5 5 7 6 5 4 4 3 4 3 2 2 3 2 4 2 3 4 1 3 3 4 2 4 3 2 5 5 6
7 6 6 7 7 7 6 6 6 5 6 5 5 5 6 4 7 8 9 5 4 4 4 3 2 2 1 2 2 3 2 2 3 2 3 2 3 4 5 4 4 4 2
7 7 6 7 8 7 7 6 5 7 5 4 4 6 6 4 7 10 8 5 5 5 4 4 4 3 2 6 3 4 2 1 2 4 6 7 7 7 5 2 3 3 3
9 8 6 6 8 8 8 7 4 5 7 5 6 5 5 4 7 10 7 4 5 4 3 5 4 2 2 6 4 3 3 2 2 1 2 4 5 2 6 6 2 5 6
8 8 7 6 8 9 7 4 7 8 8 7 7 4 5 4 5 7 6 2 3 3 4 4 3 5 4 2 5 2 2 3 0 2 2 2 1 1 2 3 5 4 3
11 11 8 8 7 7 10 5 8 9 9 8 7 5 4 5 6 6 7 7 8 6 5 4 3 8 5 2 1 2 3 1 1 1 1 3 3 3 4 3 4 5 6
12 11 9 8 8 8 10 9 7 7 8 7 6 7 5 4 3 7 9 10 10 6 4 8 10 9 9 6 6 7 5 2 1 1 4 5 3 4 4 3 5 7 7
14 13 10 11 9 7 5 6 7 7 6 6 7 7 5 3 3 2 3 4 9 7 7 4 6 6 7 5 4 5 3 3 4 4 4 4 3 3 5 5 6 6 6
13 12 11 10 11 9 5 5 5 2 5 7 5 7 8 5 4 8 6 3 3 6 5 3 2 2 2 2 2 2 3 3 2 3 5 5 5 5 5 5 6 7 7
14 11 10 11 10 10 10 9 11 13 15 15 14 9 4 11 14 13 11 10 11 11 3 3 3 3 3 2 3 3 3 4 4 4 4 4 6 6 7 6 6 7 8
14 13 11 12 11 12 11 11 13 11 16 15 14 14 13 13 12 9 11 12 10 8 4 5 5 4 3 3 4 3 4 5 4 5 5 4 4 5 8 7 7 7 7
11 13 10 11 11 10 10 11 11 13 11 6 7 8 14 14 11 9 12 10 6 6 4 4 4 3 3 3 2 3 3 4 4 5 6 7 6 7 6 7 7 8 6
9 6 6 7 7 7 7 6 6 7 7 6 2 6 6 13 12 13 10 4 5 3 3 3 2 2 2 2 2 2 2 3 3 4 4 5 6 6 6 6 7 9 9
6 9 8 7 7 7 5 6 6 6 6 5 4 3 2 2 2 2 3 3 4 4 3 3 2 2 2 2 2 2 2 3 3 3 4 5 5 5 6 6 6 7 6
7 6 9 7 6 5 5 5 5 6 6 5 3 2 6 4 4 3 3 3 3 3 2 2 2 2 1 1 0 1 1 2 2 3 4 4 4 5 5 6 6 6 6
6 7 7 7 6 6 5 5 5 6 5 6 3 2 9 3 3 3 3 3 3 3 3 2 2 1 1 1 0 0 1 2 3 2 4 4 4 4 4 5 5 6 6
7 7 7 5 6 8 6 5 4 4 4 4 3 3 2 2 3 3 3 2 2 2 2 2 2 2 2 2 2 2 2 2 2 2 4 4 4 4 4 5 5 5 5
7 7 6 5 5 5 5 4 4 5 4 3 3 2 2 2 2 2 3 3 3 3 2 3 3 4 3 3 2 3 3 3 3 4 5 4 5 4 4 3 4 5 5
6 5 5 5 4 4 4 4 3 3 3 2 2 2 2 2 3 3 3 3 3 3 3 3 3 4 6 6 5 6 5 7 5 6 4 5 6 5 4 3 3 4 4
5 5 4 4 4 3 3 2 2 2 2 3 3 3 3 3 3 3 3 3 3 4 5 4 5 7 7 6 7 7 7 8 7 8 5 4 4 3 4 4 5 4 4
Wind_Direction
192 195 196 199 199 198 202 208 208 203 191 200 202 210 216 215 215 212 224 232 226 238 238 232 240 249 124 159 171 151 196 208 235 216 191 209 190 212 217 222 221 219 219
175 175 192 183 181 192 203 201 186 205 201 207 209 213 217 220 220 217 224 220 224 234 247 182 207 173 188 156 184 181 190 197 218 224 174 208 214 216 237 211 212 219 220
169 172 171 177 180 194 196 197 191 202 209 209 208 213 211 209 208 202 190 183 193 196 197 195 214 178 158 160 189 189 171 197 194 175 186 162 179 179 189 206 201 205 216
171 169 171 174 176 174 165 167 170 178 175 173 172 161 158 163 165 174 176 177 140 127 92 122 180 188 197 185 188 186 172 186 182 196 191 175 116 94 217 190 220 220 238
168 171 181 166 157 143 142 134 119 120 122 129 117 105 107 99 86 119 130 130 138 125 101 68 347 254 210 183 183 185 183 180 184 203 148 163 145 184 206 186 238 244 244
159 161 144 131 118 125 128 134 131 126 121 107 97 98 84 73 89 95 105 109 105 129 163 167 203 224 225 204 211 206 193 181 192 181 205 212 174 186 180 203 230 244 291
147 140 141 137 134 138 135 130 122 111 106 108 104 106 90 60 45 48 68 65 60 54 53 46 18 16 11 356 264 267 240 224 98 183 187 205 200 193 152 210 218 217 237
156 156 152 151 143 138 132 135 129 124 116 106 96 96 101 73 81 88 102 108 117 99 96 94 95 78 150 190 137 121 112 183 204 177 222 208 214 194 202 205 210 228 279
165 169 172 159 144 141 142 141 125 118 113 108 114 112 114 95 103 118 120 118 108 99 98 95 104 103 157 190 155 143 164 219 254 250 244 253 261 257 227 181 232 229 266
172 166 160 156 146 144 144 135 121 114 115 116 102 92 106 111 106 121 130 134 135 135 117 93 74 87 118 173 161 167 193 203 201 283 305 258 244 239 280 201 191 245 267
146 138 140 148 145 148 135 127 132 121 114 102 96 78 76 60 65 114 106 67 95 85 70 64 48 36 38 141 165 176 212 149 355 239 282 266 272 261 225 214 199 224 221
146 135 144 151 145 143 133 135 125 125 122 122 123 107 79 61 79 85 132 124 99 87 73 58 36 58 75 88 117 232 281 192 179 234 273 301 305 304 297 243 226 226 233
141 134 145 137 134 138 134 132 124 128 138 148 142 120 103 81 74 83 101 97 118 107 120 96 78 65 63 57 38 28 29 358 305 289 302 310 278 259 264 266 248 247 243
144 143 150 139 132 121 118 127 135 144 146 143 132 121 112 119 121 118 93 100 100 111 109 100 99 85 68 73 52 32 26 23 354 325 304 283 282 267 269 263 271 270 262
145 147 150 138 135 130 120 137 138 115 149 143 141 142 144 143 150 137 139 131 121 129 125 123 117 92 74 49 42 25 5 358 339 304 310 304 293 283 277 273 268 278 271
149 156 154 140 136 134 132 122 115 122 121 124 139 143 178 128 129 123 124 124 124 131 114 123 110 84 62 32 17 358 357 349 343 326 306 299 307 302 301 296 278 273 282
153 155 150 143 144 143 142 140 135 118 119 121 127 126 113 115 116 136 143 115 92 102 93 90 93 87 64 45 27 21 358 353 340 328 323 306 298 298 309 307 297 287 282
143 158 153 148 147 146 153 154 150 148 145 132 100 110 105 105 109 128 128 101 71 47 83 97 92 74 79 75 41 33 13 3 359 350 350 352 350 339 323 307 292 290 281
137 144 136 123 119 125 133 140 136 134 133 129 121 71 48 105 91 75 80 110 128 114 103 97 105 96 84 69 54 33 19 6 356 347 353 350 343 345 333 327 330 330 327
98 115 117 119 121 124 124 131 124 123 123 120 113 122 149 121 96 70 63 84 105 123 129 110 86 69 69 52 33 25 10 9 0 7 2 348 338 333 329 327 319 312 308
120 105 100 96 104 115 122 133 127 121 121 115 115 179 154 136 147 133 132 131 130 118 125 137 152 154 154 174 133 39 7 337 7 7 347 328 329 336 333 314 311 314 313
98 106 105 114 117 107 105 105 110 117 125 130 131 118 112 95 121 134 136 139 155 170 182 174 176 188 183 167 78 321 311 330 344 345 313 297 320 320 304 302 308 313 311
91 97 94 91 99 110 100 99 107 109 118 122 127 123 121 138 152 158 161 171 196 198 189 189 194 218 201 211 204 211 232 265 271 261 274 296 298 291 299 317 314 310 311
79 84 96 96 95 93 100 111 112 106 126 134 135 153 155 170 185 195 200 208 214 226 220 209 212 227 262 263 246 225 232 250 243 249 247 259 270 283 296 289 295 302 304
71 80 82 88 89 102 110 112 124 127 129 164 172 176 186 199 223 233 235 235 238 244 244 222 225 237 247 255 259 265 251 261 250 245 238 246 259 269 274 273 278 298 297
66 77 87 91 99 110 113 125 150 168 176 185 206 213 221 230 240 246 242 239 246 244 246 236 237 240 245 248 252 255 254 263 255 248 249 256 264 261 272 278 286 279 282